| time (UTC) | temp F | wind direction | speed knots | gust knots | rain 1hr in | rain 24hr in | rain mn in | humidity % | barometer mb |
| 20260507052208 | 51 | 92 | 6.1 | 4.3 | 0.00 | 0.00 | 0.00 | 80 | 1017.0 |
| 20260507050207 | 52 | 92 | 6.1 | 4.3 | 0.00 | 0.00 | 0.00 | 80 | 1017.0 |
| 20260507044206 | 54 | 92 | 6.1 | 4.3 | 0.00 | 0.00 | 0.00 | 80 | 1018.0 |
| 20260507042205 | 52 | 93 | 6.1 | 4.3 | 0.00 | 0.00 | 0.00 | 80 | 1017.0 |
| 20260507040204 | 54 | 93 | 6.1 | 4.3 | 0.00 | 0.00 | 0.00 | 80 | 1017.0 |
| 20260507034203 | 52 | 95 | 6.1 | 4.3 | 0.00 | 0.00 | 0.00 | 80 | 1018.0 |
| 20260507032202 | 54 | 95 | 6.1 | 4.3 | 0.00 | 0.00 | 0.00 | 80 | 1017.0 |
| 20260507030201 | 52 | 97 | 6.1 | 4.3 | 0.00 | 0.00 | 0.00 | 80 | 1017.0 |
| 20260507024200 | 53 | 97 | 6.1 | 4.3 | 0.00 | 0.00 | 0.00 | 80 | 1018.0 |
| 20260507022159 | 55 | 97 | 6.1 | 4.3 | 0.00 | 0.00 | 0.00 | 80 | 1016.0 |
| 20260507020158 | 53 | 98 | 4.3 | 4.3 | 0.00 | 0.00 | 0.00 | 80 | 1016.0 |
| 20260507014157 | 54 | 98 | 4.3 | 4.3 | 0.00 | 0.00 | 0.00 | 80 | 1017.0 |
| 20260507012156 | 56 | 98 | 5.2 | 4.3 | 0.00 | 0.00 | 0.00 | 80 | 1015.0 |
| 20260507010155 | 55 | 98 | 4.3 | 4.3 | 0.00 | 0.00 | 0.00 | 80 | 1015.0 |
| 20260507004153 | 57 | 98 | 5.2 | 4.3 | 0.00 | 0.00 | 0.00 | 80 | 1016.0 |
| 20260507002152 | 56 | 105 | 2.6 | 3.5 | 0.00 | 0.00 | 0.00 | 80 | 1014.0 |
| 20260507000151 | 58 | 105 | 2.6 | 3.5 | 0.00 | 0.00 | 0.00 | 80 | 1014.0 |
| 20260506234150 | 60 | 105 | 2.6 | 3.5 | 0.00 | 0.00 | 0.00 | 80 | 1014.0 |
| 20260506232149 | 62 | 105 | 2.6 | 3.5 | 0.00 | 0.00 | 0.00 | 80 | 1012.0 |
| 20260506230148 | 64 | 105 | 2.6 | 3.5 | 0.00 | 0.00 | 0.00 | 80 | 1012.0 |
| 20260506224147 | 61 | 187 | 0.9 | 2.6 | 0.00 | 0.00 | 0.00 | 80 | 1013.0 |
| 20260506222146 | 62 | 187 | 0.9 | 2.6 | 0.00 | 0.00 | 0.00 | 80 | 1011.0 |
| 20260506220145 | 63 | 187 | 0.9 | 2.6 | 0.00 | 0.00 | 0.00 | 80 | 1011.0 |
| 20260506214144 | 64 | 187 | 0.9 | 2.6 | 0.00 | 0.00 | 0.00 | 80 | 1012.0 |
| 20260506212143 | 65 | 187 | 0.9 | 2.6 | 0.00 | 0.00 | 0.00 | 80 | 1010.0 |
| 20260506210142 | 66 | 187 | 0.9 | 2.6 | 0.00 | 0.00 | 0.00 | 80 | 1010.0 |
| 20260506204141 | 67 | 187 | 0.9 | 2.6 | 0.01 | 0.00 | 0.00 | 80 | 1011.0 |
| 20260506202140 | 65 | 236 | 0.9 | 3.5 | 0.00 | 0.00 | 0.00 | 82 | 1011.0 |
| 20260506200139 | 66 | 236 | 0.9 | 3.5 | 0.00 | 0.00 | 0.00 | 83 | 1011.0 |
| 20260506194138 | 67 | 236 | 0.9 | 3.5 | 0.01 | 0.00 | 0.00 | 83 | 1012.0 |
| 20260506185921 | 67 | 253 | 0.9 | 3.5 | 0.00 | 0.00 | 0.00 | 83 | 1012.0 |
| 20260506183920 | 67 | 253 | 0.9 | 3.5 | 0.00 | 0.00 | 0.00 | 83 | 1012.0 |
| 20260506181919 | 67 | 237 | 1.7 | 4.3 | 0.00 | 0.00 | 0.00 | 83 | 1012.0 |
| 20260506175918 | 67 | 237 | 1.7 | 4.3 | 0.00 | 0.00 | 0.00 | 83 | 1013.0 |
| 20260506173917 | 67 | 234 | 1.7 | 3.5 | 0.00 | 0.00 | 0.00 | 83 | 1013.0 |
| 20260506171916 | 67 | 255 | 2.6 | 3.5 | 0.00 | 0.00 | 0.00 | 83 | 1014.0 |
| 20260506165915 | 67 | 255 | 2.6 | 3.5 | 0.00 | 0.00 | 0.00 | 83 | 1014.0 |
| 20260506163914 | 67 | 255 | 2.6 | 3.5 | 0.00 | 0.00 | 0.00 | 83 | 1014.0 |
| 20260506161913 | 67 | 251 | 2.6 | 4.3 | 0.00 | 0.00 | 0.00 | 83 | 1015.0 |
| 20260506155912 | 65 | 251 | 2.6 | 4.3 | 0.00 | 0.00 | 0.00 | 88 | 1015.0 |
| 20260506153911 | 65 | 251 | 2.6 | 4.3 | 0.00 | 0.00 | 0.00 | 81 | 1016.0 |
| 20260506151910 | 63 | 255 | 2.6 | 4.3 | 0.00 | 0.00 | 0.00 | 94 | 1016.0 |
| 20260506145909 | 63 | 255 | 2.6 | 4.3 | 0.00 | 0.00 | 0.00 | 94 | 1016.0 |
| 20260506143908 | 63 | 248 | 0.9 | 3.5 | 0.00 | 0.00 | 0.00 | 94 | 1016.0 |
| 20260506141908 | 64 | 248 | 1.7 | 3.5 | 0.00 | 0.00 | 0.00 | 94 | 1017.0 |
| 20260506135906 | 62 | 248 | 1.7 | 3.5 | 0.00 | 0.00 | 0.00 | 82 | 1017.0 |
| 20260506133906 | 58 | 248 | 1.7 | 3.5 | 0.00 | 0.00 | 0.00 | 83 | 1017.0 |
| 20260506131905 | 55 | 225 | 0.9 | 2.6 | 0.00 | 0.00 | 0.00 | 87 | 1017.0 |
| 20260506125904 | 57 | 225 | 0.9 | 2.6 | 0.00 | 0.00 | 0.00 | 85 | 1017.0 |
| 20260506123903 | 55 | 225 | 0.9 | 2.6 | 0.00 | 0.00 | 0.00 | 91 | 1017.0 |
| 20260506121902 | 55 | 100 | 2.6 | 2.6 | 0.00 | 0.00 | 0.00 | 91 | 1017.0 |
| 20260506115901 | 54 | 99 | 4.3 | 4.3 | 0.00 | 0.00 | 0.00 | 91 | 1017.0 |
| 20260506113900 | 54 | 99 | 4.3 | 4.3 | 0.00 | 0.00 | 0.00 | 91 | 1017.0 |
| 20260506111859 | 55 | 99 | 5.2 | 4.3 | 0.00 | 0.00 | 0.00 | 91 | 1017.0 |
| 20260506105858 | 54 | 99 | 4.3 | 4.3 | 0.00 | 0.00 | 0.00 | 91 | 1017.0 |
| 20260506103857 | 55 | 99 | 5.2 | 4.3 | 0.00 | 0.00 | 0.00 | 91 | 1017.0 |
| 20260506101856 | 54 | 97 | 4.3 | 4.3 | 0.00 | 0.00 | 0.00 | 91 | 1016.0 |
| 20260506095855 | 55 | 97 | 5.2 | 4.3 | 0.00 | 0.00 | 0.00 | 91 | 1017.0 |
| 20260506093854 | 54 | 94 | 4.3 | 4.3 | 0.00 | 0.00 | 0.00 | 91 | 1017.0 |
| 20260506091853 | 55 | 94 | 5.2 | 4.3 | 0.00 | 0.00 | 0.00 | 91 | 1016.0 |
| 20260506085852 | 54 | 95 | 4.3 | 4.3 | 0.00 | 0.00 | 0.00 | 91 | 1016.0 |
| 20260506083851 | 55 | 95 | 4.3 | 4.3 | 0.00 | 0.00 | 0.00 | 91 | 1016.0 |
| 20260506081850 | 56 | 95 | 5.2 | 4.3 | 0.00 | 0.00 | 0.00 | 91 | 1016.0 |
| 20260506071847 | 56 | 94 | 5.2 | 4.3 | 0.00 | 0.00 | 0.00 | 90 | 1016.0 |
| 20260506061844 | 56 | 94 | 4.3 | 4.3 | 0.00 | 0.00 | 0.00 | 88 | 1016.0 |